Lincoln, IL

11:10 PM CST on December 10, 2016 (GMT -0600)
Lincoln

Weather History for KAAA - February, 2013

Change the Weather History Date:

Monday, February 25, 2013

  Actual Average (KSPI) Record (KSPI)
Temperature  
Mean Temperature 36 °F -  
Max Temperature 45 °F 42 °F 72 °F (2000)
Min Temperature 27 °F 24 °F -4 °F (1963)
Degree Days  
Heating Degree Days 29    
Moisture  
Dew Point 30 °F    
Average Humidity 79    
Maximum Humidity 94    
Minimum Humidity 60    
Precipitation  
Precipitation 0.00 in - - ()
Sea Level Pressure  
Sea Level Pressure 30.01 in    
Wind  
Wind Speed 7 mph (ENE)    
Max Wind Speed 22 mph    
Max Gust Speed 30 mph    
Visibility 9 miles    
Events      
Averages and records for this station are not official NWS values.
T = Trace of Precipitation, MM = Missing Value Source: NWS Daily Summary

Daily Weather History Graph

Daily Weather History Graph

Search for Another Location

Airport or City:

Trip Planner

Search our weather history database for the weather conditions in past years. The results will help you decide how hot, cold, wet, or windy it might be!

Date:

Astronomy

Feb. 25, 2013 Rise Set
Actual Time 6:36 AM CST 5:44 PM CST
Civil Twilight 6:09 AM CST 6:12 PM CST
Nautical Twilight 5:37 AM CST 6:43 PM CST
Astronomical Twilight 5:06 AM CST 7:15 PM CST
Moon 5:58 PM CST (2/25) 6:06 AM CST (2/25)
Length of Visible Light 12h 03m
Length of Day
11h 08m
Full, 100% of the Moon is Illuminated
Feb 25
Full
Feb 25
Full
Mar 4
Last Quarter
Mar 11
New
Mar 19
First Quarter

Hourly Weather History & Observations

Time (CST) Temp. Windchill Dew Point Humidity Pressure Visibility Wind Dir Wind Speed Gust Speed Precip Events Conditions
12:15 AM 28.6 °F 23.5 °F 26.1 °F 90% 30.10 in 7.0 mi ENE 4.6 mph - N/A   Clear
12:35 AM 30.0 °F - 27.3 °F 90% 30.10 in 7.0 mi Calm Calm - N/A   Clear
12:55 AM 29.7 °F 26.1 °F 27.0 °F 90% 30.10 in 7.0 mi East 3.5 mph - N/A   Clear
1:15 AM 30.2 °F 26.7 °F 27.3 °F 89% 30.10 in 7.0 mi East 3.5 mph - N/A   Clear
1:35 AM 30.2 °F 25.4 °F 27.1 °F 88% 30.09 in 10.0 mi East 4.6 mph - N/A   Clear
1:55 AM 30.0 °F 26.5 °F 27.1 °F 89% 30.10 in 7.0 mi ENE 3.5 mph - N/A   Clear
2:15 AM 29.8 °F 26.3 °F 27.1 °F 90% 30.11 in 7.0 mi East 3.5 mph - N/A   Clear
2:35 AM 29.1 °F - 26.6 °F 90% 30.11 in 7.0 mi Calm Calm - N/A   Clear
2:55 AM 28.6 °F 24.8 °F 26.2 °F 91% 30.11 in 7.0 mi East 3.5 mph - N/A   Clear
3:15 AM 28.2 °F - 26.2 °F 92% 30.10 in 5.0 mi Calm Calm - N/A   Clear
3:35 AM 27.0 °F - 25.3 °F 94% 30.10 in 5.0 mi Calm Calm - N/A   Clear
3:55 AM 27.0 °F - 25.3 °F 94% 30.09 in 5.0 mi Calm Calm - N/A   Clear
4:15 AM 27.3 °F 23.4 °F 25.9 °F 94% 30.09 in 5.0 mi East 3.5 mph - N/A   Clear
4:35 AM 28.9 °F 25.2 °F 26.6 °F 91% 30.09 in 7.0 mi ENE 3.5 mph - N/A   Clear
4:55 AM 29.1 °F - 26.2 °F 89% 30.11 in 7.0 mi Calm Calm - N/A   Clear
5:15 AM 28.4 °F 24.6 °F 26.2 °F 92% 30.11 in 7.0 mi ENE 3.5 mph - N/A   Clear
5:35 AM 28.9 °F 23.9 °F 26.4 °F 90% 30.11 in 7.0 mi East 4.6 mph - N/A   Clear
5:55 AM 29.1 °F 24.1 °F 26.4 °F 90% 30.11 in 7.0 mi ENE 4.6 mph - N/A   Clear
6:15 AM 28.9 °F 25.2 °F 26.2 °F 90% 30.10 in 7.0 mi East 3.5 mph - N/A   Clear
6:35 AM 28.0 °F 22.8 °F 25.7 °F 91% 30.09 in 5.0 mi East 4.6 mph - N/A   Clear
6:55 AM 28.8 °F 21.7 °F 26.8 °F 92% 30.08 in 4.0 mi East 6.9 mph - N/A   Clear
7:15 AM 30.6 °F 23.1 °F 27.3 °F 88% 30.07 in 5.0 mi East 8.1 mph - N/A   Clear
7:35 AM 32.0 °F 26.4 °F 28.0 °F 85% 30.08 in 5.0 mi East 5.8 mph - N/A   Clear
7:55 AM 32.7 °F 27.3 °F 28.9 °F 86% 30.09 in 5.0 mi East 5.8 mph - N/A   Clear
8:15 AM 33.8 °F 28.6 °F 29.3 °F 84% 30.09 in 7.0 mi East 5.8 mph - N/A   Clear
8:35 AM 34.5 °F 29.4 °F 30.0 °F 84% 30.09 in 5.0 mi East 5.8 mph - N/A   Haze
8:55 AM 35.2 °F 27.6 °F 29.7 °F 80% 30.08 in 7.0 mi East 10.4 mph - N/A   Clear
9:15 AM 37.0 °F 30.4 °F 30.6 °F 77% 30.07 in 7.0 mi ESE 9.2 mph - N/A   Clear
9:35 AM 37.8 °F 31.3 °F 30.4 °F 75% 30.07 in 10.0 mi ESE 9.2 mph - N/A   Clear
9:55 AM 38.3 °F 30.5 °F 30.4 °F 73% 30.07 in 10.0 mi ESE 12.7 mph - N/A   Clear
10:15 AM 39.6 °F 33.5 °F 31.6 °F 73% 30.08 in 10.0 mi East 9.2 mph - N/A   Clear
10:35 AM 40.5 °F 33.6 °F 31.1 °F 69% 30.09 in 10.0 mi East 11.5 mph - N/A   Clear
10:55 AM 41.4 °F 35.2 °F 31.5 °F 68% 30.07 in 10.0 mi ESE 10.4 mph - N/A   Clear
11:15 AM 42.3 °F 35.9 °F 32.0 °F 67% 30.08 in 10.0 mi East 11.5 mph - N/A   Clear
11:35 AM 42.4 °F 37.0 °F 31.3 °F 65% 30.07 in 10.0 mi ESE 9.2 mph - N/A   Clear
11:55 AM 43.3 °F 38.1 °F 31.3 °F 62% 30.07 in 10.0 mi East 9.2 mph - N/A   Clear
12:15 PM 43.9 °F 39.3 °F 31.8 °F 63% 30.06 in 10.0 mi East 8.1 mph - N/A   Clear
12:35 PM 44.8 °F 39.9 °F 32.2 °F 61% 30.04 in 10.0 mi East 9.2 mph - N/A   Clear
12:55 PM 44.4 °F 40.0 °F 32.0 °F 62% 30.04 in 10.0 mi East 8.1 mph - N/A   Clear
1:15 PM 45.5 °F 41.3 °F 32.2 °F 60% 30.04 in 10.0 mi East 8.1 mph - N/A   Clear
1:35 PM 45.5 °F 43.2 °F 32.2 °F 60% 30.03 in 10.0 mi East 4.6 mph - N/A   Clear
1:55 PM 45.1 °F 40.8 °F 32.5 °F 61% 30.02 in 10.0 mi ENE 8.1 mph - N/A   Clear
2:15 PM 43.9 °F 38.3 °F 32.2 °F 63% 30.01 in 10.0 mi ENE 10.4 mph - N/A   Clear
2:35 PM 44.1 °F 38.1 °F 32.5 °F 64% 30.00 in 10.0 mi ENE 11.5 mph - N/A   Clear
2:55 PM 44.2 °F 38.4 °F 33.4 °F 66% 29.98 in 10.0 mi ENE 11.5 mph - N/A   Clear
3:15 PM 43.7 °F 36.6 °F 34.2 °F 69% 29.96 in 10.0 mi ENE 15.0 mph - N/A   Clear
3:35 PM 43.3 °F 36.8 °F 33.8 °F 69% 29.96 in 10.0 mi ENE 12.7 mph 18.4 mph N/A   Clear
3:55 PM 43.3 °F 36.5 °F 33.8 °F 69% 29.95 in 10.0 mi ENE 13.8 mph - N/A   Clear
4:15 PM 43.0 °F 36.4 °F 34.0 °F 71% 29.94 in 10.0 mi ENE 12.7 mph - N/A   Clear
4:35 PM 42.8 °F 35.8 °F 34.0 °F 71% 29.94 in 10.0 mi ENE 13.8 mph 19.6 mph N/A   Clear
4:55 PM 41.9 °F 34.3 °F 33.8 °F 73% 29.93 in 10.0 mi ENE 15.0 mph - N/A   Clear
5:15 PM 41.0 °F 33.5 °F 33.8 °F 76% 29.92 in 10.0 mi NE 13.8 mph - N/A   Clear
5:35 PM 40.3 °F 32.2 °F 33.3 °F 76% 29.92 in 10.0 mi ENE 15.0 mph - N/A   Clear
5:55 PM 39.7 °F 32.3 °F 32.9 °F 77% 29.92 in 10.0 mi NE 12.7 mph - N/A   Clear
6:15 PM 38.1 °F 30.7 °F 32.5 °F 80% 29.91 in 10.0 mi NE 11.5 mph 17.3 mph N/A   Clear
6:35 PM 38.5 °F 30.7 °F 32.4 °F 79% 29.92 in 10.0 mi NE 12.7 mph 20.7 mph N/A   Clear
6:55 PM 37.9 °F 29.2 °F 32.0 °F 79% 29.91 in 10.0 mi NE 15.0 mph 23.0 mph N/A   Clear
7:15 PM 37.8 °F 29.4 °F 32.0 °F 80% 29.90 in 10.0 mi NE 13.8 mph - N/A   Clear
7:35 PM 37.9 °F 27.6 °F 31.8 °F 79% 29.89 in 10.0 mi NE 20.7 mph 26.5 mph N/A   Clear
7:55 PM 37.4 °F 28.2 °F 32.0 °F 81% 29.89 in 10.0 mi ENE 16.1 mph 24.2 mph N/A   Clear
8:15 PM 37.6 °F 28.1 °F 31.5 °F 79% 29.90 in 10.0 mi ENE 17.3 mph 21.9 mph N/A   Clear
8:35 PM 37.4 °F 27.8 °F 31.6 °F 80% 29.91 in 10.0 mi ENE 17.3 mph 23.0 mph N/A   Clear
8:55 PM 37.4 °F 29.3 °F 31.5 °F 79% 29.92 in 10.0 mi NE 12.7 mph - N/A   Scattered Clouds
9:15 PM 37.4 °F 28.9 °F 31.1 °F 78% 29.91 in 10.0 mi NE 13.8 mph - N/A   Scattered Clouds
9:35 PM 37.4 °F 29.8 °F 30.9 °F 77% 29.92 in 10.0 mi ENE 11.5 mph - N/A   Scattered Clouds
9:55 PM 37.6 °F 28.4 °F 30.6 °F 76% 29.89 in 10.0 mi NE 16.1 mph 19.6 mph N/A   Mostly Cloudy
10:15 PM 37.6 °F 27.7 °F 30.6 °F 76% 29.86 in 10.0 mi ENE 18.4 mph 23.0 mph N/A   Mostly Cloudy
10:35 PM 37.6 °F 26.9 °F 30.4 °F 75% 29.84 in 10.0 mi ENE 21.9 mph 26.5 mph N/A   Mostly Cloudy
10:55 PM 37.4 °F 26.6 °F 30.2 °F 75% 29.81 in 10.0 mi ENE 21.9 mph 29.9 mph N/A   Mostly Cloudy
11:15 PM 37.6 °F 27.1 °F 30.6 °F 76% 29.80 in 10.0 mi NE 20.7 mph 25.3 mph N/A   Mostly Cloudy
11:35 PM 37.4 °F 26.9 °F 30.2 °F 75% 29.79 in 10.0 mi ENE 20.7 mph 28.8 mph N/A   Overcast
11:55 PM 37.4 °F 27.2 °F 30.6 °F 76% 29.78 in 10.0 mi ENE 19.6 mph 29.9 mph N/A   Overcast